Year,Month,Day,Hour,Minute,Value (Times are PST for temperature in C)
2015,02,28,00,00,7.90
2015,02,28,00,01,7.90
2015,02,28,00,02,7.90
2015,02,28,00,03,7.90
2015,02,28,00,04,7.90
2015,02,28,00,05,7.90
2015,02,28,00,06,7.90
2015,02,28,00,07,7.90
2015,02,28,00,08,7.90
2015,02,28,00,09,7.90
2015,02,28,00,10,7.90
2015,02,28,00,11,7.80
2015,02,28,00,12,7.80
2015,02,28,00,13,7.80
2015,02,28,00,14,7.80
2015,02,28,00,15,7.80
2015,02,28,00,16,7.80
2015,02,28,00,17,7.80
2015,02,28,00,18,7.80
2015,02,28,00,19,7.80
2015,02,28,00,20,7.80
2015,02,28,00,21,7.80
2015,02,28,00,22,7.70
2015,02,28,00,23,7.70
2015,02,28,00,24,7.70
2015,02,28,00,25,7.60
2015,02,28,00,26,7.60
2015,02,28,00,27,7.60
2015,02,28,00,28,7.60
2015,02,28,00,29,7.60
2015,02,28,00,30,7.60
2015,02,28,00,31,7.50
2015,02,28,00,32,7.50
2015,02,28,00,33,7.50
2015,02,28,00,34,7.40
2015,02,28,00,35,7.40
2015,02,28,00,36,7.40
2015,02,28,00,37,7.40
2015,02,28,00,38,7.40
2015,02,28,00,39,7.30
2015,02,28,00,40,7.30
2015,02,28,00,41,7.30
2015,02,28,00,42,7.30
2015,02,28,00,43,7.30
2015,02,28,00,44,7.30
2015,02,28,00,45,7.30
2015,02,28,00,46,7.30
2015,02,28,00,47,7.30
2015,02,28,00,48,7.30
2015,02,28,00,49,7.30
2015,02,28,00,50,7.30
2015,02,28,00,51,7.30
2015,02,28,00,52,7.40
2015,02,28,00,53,7.40
2015,02,28,00,54,7.30
2015,02,28,00,55,7.30
2015,02,28,00,56,7.30
2015,02,28,00,57,7.30
2015,02,28,00,58,7.20
2015,02,28,00,59,7.20
2015,02,28,01,00,7.10
2015,02,28,01,01,7.00
2015,02,28,01,02,7.00
2015,02,28,01,03,6.90
2015,02,28,01,04,6.80
2015,02,28,01,05,6.80
2015,02,28,01,06,6.70
2015,02,28,01,07,6.70
2015,02,28,01,08,6.60
2015,02,28,01,09,6.60
2015,02,28,01,10,6.50
2015,02,28,01,11,6.40
2015,02,28,01,12,6.30
2015,02,28,01,13,6.20
2015,02,28,01,14,6.10
2015,02,28,01,15,5.90
2015,02,28,01,16,5.80
2015,02,28,01,17,5.70
2015,02,28,01,18,5.60
2015,02,28,01,19,5.50
2015,02,28,01,20,5.40
2015,02,28,01,21,5.30
2015,02,28,01,22,5.30
2015,02,28,01,23,5.20
2015,02,28,01,24,5.10
2015,02,28,01,25,5.00
2015,02,28,01,26,4.90
2015,02,28,01,27,4.90
2015,02,28,01,28,4.90
2015,02,28,01,29,4.90
2015,02,28,01,30,4.90
2015,02,28,01,31,4.80
2015,02,28,01,32,4.80
2015,02,28,01,33,4.80
2015,02,28,01,34,4.80
2015,02,28,01,35,4.80
2015,02,28,01,36,4.90
2015,02,28,01,37,4.90
2015,02,28,01,38,4.90
2015,02,28,01,39,5.00
2015,02,28,01,40,5.00
2015,02,28,01,41,5.10
2015,02,28,01,42,5.20
2015,02,28,01,43,5.20
2015,02,28,01,44,5.30
2015,02,28,01,45,5.30
2015,02,28,01,46,5.30
2015,02,28,01,47,5.30
2015,02,28,01,48,5.30
2015,02,28,01,49,5.30
2015,02,28,01,50,5.30
2015,02,28,01,51,5.30
2015,02,28,01,52,5.30
2015,02,28,01,53,5.30
2015,02,28,01,54,5.30
2015,02,28,01,55,5.20
2015,02,28,01,56,5.10
2015,02,28,01,57,5.00
2015,02,28,01,58,4.90
2015,02,28,01,59,4.90
2015,02,28,02,00,4.80
2015,02,28,02,01,4.80
2015,02,28,02,02,4.70
2015,02,28,02,03,4.60
2015,02,28,02,04,4.60
2015,02,28,02,05,4.50
2015,02,28,02,06,4.50
2015,02,28,02,07,4.40
2015,02,28,02,08,4.40
2015,02,28,02,09,4.40
2015,02,28,02,10,4.40
2015,02,28,02,11,4.40
2015,02,28,02,12,4.50
2015,02,28,02,13,4.60
2015,02,28,02,14,4.70
2015,02,28,02,15,4.70
2015,02,28,02,16,4.80
2015,02,28,02,17,4.90
2015,02,28,02,18,5.00
2015,02,28,02,19,5.10
2015,02,28,02,20,5.10
2015,02,28,02,21,5.20
2015,02,28,02,22,5.20
2015,02,28,02,23,5.20
2015,02,28,02,24,5.20
2015,02,28,02,25,5.00
2015,02,28,02,26,4.90
2015,02,28,02,27,4.70
2015,02,28,02,28,4.60
2015,02,28,02,29,4.40
2015,02,28,02,30,4.20
2015,02,28,02,31,4.10
2015,02,28,02,32,4.00
2015,02,28,02,33,3.90
2015,02,28,02,34,3.80
2015,02,28,02,35,3.70
2015,02,28,02,36,3.60
2015,02,28,02,37,3.60
2015,02,28,02,38,3.50
2015,02,28,02,39,3.40
2015,02,28,02,40,3.30
2015,02,28,02,41,3.20
2015,02,28,02,42,3.20
2015,02,28,02,43,3.20
2015,02,28,02,44,3.10
2015,02,28,02,45,3.10
2015,02,28,02,46,3.00
2015,02,28,02,47,3.00
2015,02,28,02,48,2.90
2015,02,28,02,49,2.90
2015,02,28,02,50,2.80
2015,02,28,02,51,2.80
2015,02,28,02,52,2.80
2015,02,28,02,53,2.70
2015,02,28,02,54,2.60
2015,02,28,02,55,2.50
2015,02,28,02,56,2.40
2015,02,28,02,57,2.40
2015,02,28,02,58,2.30
2015,02,28,02,59,2.20
2015,02,28,03,00,2.20
2015,02,28,03,01,2.20
2015,02,28,03,02,2.20
2015,02,28,03,03,2.20
2015,02,28,03,04,2.20
2015,02,28,03,05,2.20
2015,02,28,03,06,2.20
2015,02,28,03,07,2.20
2015,02,28,03,08,2.20
2015,02,28,03,09,2.20
2015,02,28,03,10,2.30
2015,02,28,03,11,2.30
2015,02,28,03,12,2.30
2015,02,28,03,13,2.30
2015,02,28,03,14,2.30
2015,02,28,03,15,2.30
2015,02,28,03,16,2.30
2015,02,28,03,17,2.20
2015,02,28,03,18,2.20
2015,02,28,03,19,2.10
2015,02,28,03,20,2.00
2015,02,28,03,21,2.00
2015,02,28,03,22,2.00
2015,02,28,03,23,2.00
2015,02,28,03,24,2.10
2015,02,28,03,25,2.20
2015,02,28,03,26,2.20
2015,02,28,03,27,2.30
2015,02,28,03,28,2.30
2015,02,28,03,29,2.30
2015,02,28,03,30,2.20
2015,02,28,03,31,2.20
2015,02,28,03,32,2.20
2015,02,28,03,33,2.10
2015,02,28,03,34,2.00
2015,02,28,03,35,2.00
2015,02,28,03,36,1.90
2015,02,28,03,37,1.90
2015,02,28,03,38,1.90
2015,02,28,03,39,2.00
2015,02,28,03,40,2.10
2015,02,28,03,41,2.20
2015,02,28,03,42,2.20
2015,02,28,03,43,2.20
2015,02,28,03,44,2.20
2015,02,28,03,45,2.20
2015,02,28,03,46,2.20
2015,02,28,03,47,2.20
2015,02,28,03,48,2.30
2015,02,28,03,49,2.20
2015,02,28,03,50,2.20
2015,02,28,03,51,2.10
2015,02,28,03,52,2.00
2015,02,28,03,53,1.90
2015,02,28,03,54,1.80
2015,02,28,03,55,1.80
2015,02,28,03,56,1.70
2015,02,28,03,57,1.70
2015,02,28,03,58,1.60
2015,02,28,03,59,1.60
2015,02,28,04,00,1.60
2015,02,28,04,01,1.60
2015,02,28,04,02,1.60
2015,02,28,04,03,1.60
2015,02,28,04,04,1.60
2015,02,28,04,05,1.60
2015,02,28,04,06,1.50
2015,02,28,04,07,1.60
2015,02,28,04,08,1.70
2015,02,28,04,09,1.70
2015,02,28,04,10,1.80
2015,02,28,04,11,1.80
2015,02,28,04,12,1.80
2015,02,28,04,13,1.80
2015,02,28,04,14,1.70
2015,02,28,04,15,1.70
2015,02,28,04,16,1.60
2015,02,28,04,17,1.50
2015,02,28,04,18,1.40
2015,02,28,04,19,1.30
2015,02,28,04,20,1.30
2015,02,28,04,21,1.20
2015,02,28,04,22,1.10
2015,02,28,04,23,1.10
2015,02,28,04,24,1.00
2015,02,28,04,25,1.00
2015,02,28,04,26,0.90
2015,02,28,04,27,0.90
2015,02,28,04,28,0.90
2015,02,28,04,29,0.80
2015,02,28,04,30,0.80
2015,02,28,04,31,0.80
2015,02,28,04,32,0.80
2015,02,28,04,33,0.80
2015,02,28,04,34,0.80
2015,02,28,04,35,0.80
2015,02,28,04,36,0.80
2015,02,28,04,37,0.70
2015,02,28,04,38,0.70
2015,02,28,04,39,0.70
2015,02,28,04,40,0.60
2015,02,28,04,41,0.60
2015,02,28,04,42,0.50
2015,02,28,04,43,0.50
2015,02,28,04,44,0.50
2015,02,28,04,45,0.50
2015,02,28,04,46,0.50
2015,02,28,04,47,0.50
2015,02,28,04,48,0.50
2015,02,28,04,49,0.60
2015,02,28,04,50,0.60
2015,02,28,04,51,0.60
2015,02,28,04,52,0.50
2015,02,28,04,53,0.50
2015,02,28,04,54,0.50
2015,02,28,04,55,0.40
2015,02,28,04,56,0.40
2015,02,28,04,57,0.40
2015,02,28,04,58,0.40
2015,02,28,04,59,0.40
2015,02,28,05,00,0.30
2015,02,28,05,01,0.30
2015,02,28,05,02,0.40
2015,02,28,05,03,0.40
2015,02,28,05,04,0.50
2015,02,28,05,05,0.50
2015,02,28,05,06,0.60
2015,02,28,05,07,0.70
2015,02,28,05,08,0.70
2015,02,28,05,09,0.80
2015,02,28,05,10,0.70
2015,02,28,05,11,0.70
2015,02,28,05,12,0.70
2015,02,28,05,13,0.70
2015,02,28,05,14,0.70
2015,02,28,05,15,0.70
2015,02,28,05,16,0.70
2015,02,28,05,17,0.70
2015,02,28,05,18,0.80
2015,02,28,05,19,0.80
2015,02,28,05,20,0.80
2015,02,28,05,21,0.90
2015,02,28,05,22,1.00
2015,02,28,05,23,1.20
2015,02,28,05,24,1.30
2015,02,28,05,25,1.40
2015,02,28,05,26,1.50
2015,02,28,05,27,1.50
2015,02,28,05,28,1.60
2015,02,28,05,29,1.60
2015,02,28,05,30,1.70
2015,02,28,05,31,1.70
2015,02,28,05,32,1.70
2015,02,28,05,33,1.60
2015,02,28,05,34,1.60
2015,02,28,05,35,1.50
2015,02,28,05,36,1.50
2015,02,28,05,37,1.60
2015,02,28,05,38,1.60
2015,02,28,05,39,1.70
2015,02,28,05,40,1.70
2015,02,28,05,41,1.80
2015,02,28,05,42,1.80
2015,02,28,05,43,1.80
2015,02,28,05,44,1.80
2015,02,28,05,45,1.80
2015,02,28,05,46,1.80
2015,02,28,05,47,1.70
2015,02,28,05,48,1.70
2015,02,28,05,49,1.70
2015,02,28,05,50,1.80
2015,02,28,05,51,1.80
2015,02,28,05,52,1.90
2015,02,28,05,53,2.00
2015,02,28,05,54,2.10
2015,02,28,05,55,2.20
2015,02,28,05,56,2.20
2015,02,28,05,57,2.20
2015,02,28,05,58,2.20
2015,02,28,05,59,2.20
2015,02,28,06,00,2.10
2015,02,28,06,01,2.00
2015,02,28,06,02,1.90
2015,02,28,06,03,1.80
2015,02,28,06,04,1.80
2015,02,28,06,05,1.70
2015,02,28,06,06,1.60
2015,02,28,06,07,1.50
2015,02,28,06,08,1.40
2015,02,28,06,09,1.30
2015,02,28,06,10,1.10
2015,02,28,06,11,1.00
2015,02,28,06,12,0.90
2015,02,28,06,13,0.90
2015,02,28,06,14,0.80
2015,02,28,06,15,0.80
2015,02,28,06,16,0.90
2015,02,28,06,17,0.90
2015,02,28,06,18,1.00
2015,02,28,06,19,1.00
2015,02,28,06,20,1.00
2015,02,28,06,21,1.00
2015,02,28,06,22,1.00
2015,02,28,06,23,0.90
2015,02,28,06,24,0.90
2015,02,28,06,25,0.80
2015,02,28,06,26,0.80
2015,02,28,06,27,0.70
2015,02,28,06,28,0.70
2015,02,28,06,29,0.60
2015,02,28,06,30,0.60
2015,02,28,06,31,0.60
2015,02,28,06,32,0.60
2015,02,28,06,33,0.60
2015,02,28,06,34,0.60
2015,02,28,06,35,0.60
2015,02,28,06,36,0.50
2015,02,28,06,37,0.50
2015,02,28,06,38,0.50
2015,02,28,06,39,0.60
2015,02,28,06,40,0.60
2015,02,28,06,41,0.50
2015,02,28,06,42,0.50
2015,02,28,06,43,0.40
2015,02,28,06,44,0.40
2015,02,28,06,45,0.40
2015,02,28,06,46,0.40
2015,02,28,06,47,0.40
2015,02,28,06,48,0.40
2015,02,28,06,49,0.40
2015,02,28,06,50,0.40
2015,02,28,06,51,0.40
2015,02,28,06,52,0.50
2015,02,28,06,53,0.50
2015,02,28,06,54,0.60
2015,02,28,06,55,0.70
2015,02,28,06,56,0.80
2015,02,28,06,57,0.80
2015,02,28,06,58,0.80
2015,02,28,06,59,0.80
2015,02,28,07,00,0.80
2015,02,28,07,01,0.80
2015,02,28,07,02,0.80
2015,02,28,07,03,0.70
2015,02,28,07,04,0.70
2015,02,28,07,05,0.60
2015,02,28,07,06,0.50
2015,02,28,07,07,0.50
2015,02,28,07,08,0.40
2015,02,28,07,09,0.40
2015,02,28,07,10,0.40
2015,02,28,07,11,0.30
2015,02,28,07,12,0.30
2015,02,28,07,13,0.30
2015,02,28,07,14,0.30
2015,02,28,07,15,0.20
2015,02,28,07,16,0.20
2015,02,28,07,17,0.20
2015,02,28,07,18,0.20
2015,02,28,07,19,0.20
2015,02,28,07,20,0.20
2015,02,28,07,21,0.30
2015,02,28,07,22,0.30
2015,02,28,07,23,0.40
2015,02,28,07,24,0.40
2015,02,28,07,25,0.50
2015,02,28,07,26,0.60
2015,02,28,07,27,0.80
2015,02,28,07,28,0.90
2015,02,28,07,29,1.00
2015,02,28,07,30,1.20
2015,02,28,07,31,1.20
2015,02,28,07,32,1.30
2015,02,28,07,33,1.50
2015,02,28,07,34,1.50
2015,02,28,07,35,1.60
2015,02,28,07,36,1.60
2015,02,28,07,37,1.60
2015,02,28,07,38,1.50
2015,02,28,07,39,1.60
2015,02,28,07,40,1.60
2015,02,28,07,41,1.60
2015,02,28,07,42,1.50
2015,02,28,07,43,1.50
2015,02,28,07,44,1.40
2015,02,28,07,45,1.40
2015,02,28,07,46,1.30
2015,02,28,07,47,1.30
2015,02,28,07,48,1.30
2015,02,28,07,49,1.30
2015,02,28,07,50,1.30
2015,02,28,07,51,1.20
2015,02,28,07,52,1.30
2015,02,28,07,53,1.30
2015,02,28,07,54,1.30
2015,02,28,07,55,1.30
2015,02,28,07,56,1.30
2015,02,28,07,57,1.30
2015,02,28,07,58,1.40
2015,02,28,07,59,1.40
2015,02,28,08,00,1.50
2015,02,28,08,01,1.60
2015,02,28,08,02,1.60
2015,02,28,08,03,1.70
2015,02,28,08,04,1.80
2015,02,28,08,05,1.80
2015,02,28,08,06,1.90
2015,02,28,08,07,1.90
2015,02,28,08,08,1.90
2015,02,28,08,09,1.90
2015,02,28,08,10,1.90
2015,02,28,08,11,1.90
2015,02,28,08,12,1.90
2015,02,28,08,13,1.90
2015,02,28,08,14,2.00
2015,02,28,08,15,2.00
2015,02,28,08,16,2.10
2015,02,28,08,17,2.10
2015,02,28,08,18,2.10
2015,02,28,08,19,2.10
2015,02,28,08,20,2.20
2015,02,28,08,21,2.20
2015,02,28,08,22,2.20
2015,02,28,08,23,2.20
2015,02,28,08,24,2.30
2015,02,28,08,25,2.30
2015,02,28,08,26,2.40
2015,02,28,08,27,2.50
2015,02,28,08,28,2.50
2015,02,28,08,29,2.60
2015,02,28,08,30,2.60
2015,02,28,08,31,2.70
2015,02,28,08,32,2.70
2015,02,28,08,33,2.70
2015,02,28,08,34,2.80
2015,02,28,08,35,2.80
2015,02,28,08,36,2.80
2015,02,28,08,37,2.90
2015,02,28,08,38,3.00
2015,02,28,08,39,3.10
2015,02,28,08,40,3.10
2015,02,28,08,41,3.20
2015,02,28,08,42,3.20
2015,02,28,08,43,3.30
2015,02,28,08,44,3.30
2015,02,28,08,45,3.40
2015,02,28,08,46,3.40
2015,02,28,08,47,3.50
2015,02,28,08,48,3.50
2015,02,28,08,49,3.60
2015,02,28,08,50,3.70
2015,02,28,08,51,3.70
2015,02,28,08,52,3.80
2015,02,28,08,53,3.90
2015,02,28,08,54,3.90
2015,02,28,08,55,4.00
2015,02,28,08,56,4.10
2015,02,28,08,57,4.20
2015,02,28,08,58,4.20
2015,02,28,08,59,4.30
2015,02,28,09,00,4.40
2015,02,28,09,01,4.50
2015,02,28,09,02,4.60
2015,02,28,09,03,4.70
2015,02,28,09,04,4.80
2015,02,28,09,05,4.90
2015,02,28,09,06,5.00
2015,02,28,09,07,5.10
2015,02,28,09,08,5.10
2015,02,28,09,09,5.20
2015,02,28,09,10,5.30
2015,02,28,09,11,5.40
2015,02,28,09,12,5.50
2015,02,28,09,13,5.60
2015,02,28,09,14,5.70
2015,02,28,09,15,5.80
2015,02,28,09,16,5.80
2015,02,28,09,17,5.90
2015,02,28,09,18,5.90
2015,02,28,09,19,6.00
2015,02,28,09,20,6.10
2015,02,28,09,21,6.20
2015,02,28,09,22,6.20
2015,02,28,09,23,6.30
2015,02,28,09,24,6.40
2015,02,28,09,25,6.40
2015,02,28,09,26,6.50
2015,02,28,09,27,6.50
2015,02,28,09,28,6.60
2015,02,28,09,29,6.60
2015,02,28,09,30,6.70
2015,02,28,09,31,6.70
2015,02,28,09,32,6.80
2015,02,28,09,33,6.80
2015,02,28,09,34,6.90
2015,02,28,09,35,6.90
2015,02,28,09,36,7.00
2015,02,28,09,37,7.00
2015,02,28,09,38,7.10
2015,02,28,09,39,7.10
2015,02,28,09,40,7.10
2015,02,28,09,41,7.20
2015,02,28,09,42,7.20
2015,02,28,09,43,7.20
2015,02,28,09,44,7.30
2015,02,28,09,45,7.30
2015,02,28,09,46,7.30
2015,02,28,09,47,7.30
2015,02,28,09,48,7.40
2015,02,28,09,49,7.40
2015,02,28,09,50,7.40
2015,02,28,09,51,7.50
2015,02,28,09,52,7.50
2015,02,28,09,53,7.50
2015,02,28,09,54,7.60
2015,02,28,09,55,7.70
2015,02,28,09,56,7.70
2015,02,28,09,57,7.80
2015,02,28,09,58,7.80
2015,02,28,09,59,7.90
2015,02,28,10,00,7.90
2015,02,28,10,01,7.90
2015,02,28,10,02,8.00
2015,02,28,10,03,8.00
2015,02,28,10,04,8.10
2015,02,28,10,05,8.10
2015,02,28,10,06,8.20
2015,02,28,10,07,8.20
2015,02,28,10,08,8.20
2015,02,28,10,09,8.30
2015,02,28,10,10,8.30
2015,02,28,10,11,8.30
2015,02,28,10,12,8.40
2015,02,28,10,13,8.40
2015,02,28,10,14,8.40
2015,02,28,10,15,8.40
2015,02,28,10,16,8.50
2015,02,28,10,17,8.50
2015,02,28,10,18,8.50
2015,02,28,10,19,8.60
2015,02,28,10,20,8.60
2015,02,28,10,21,8.60
2015,02,28,10,22,8.60
2015,02,28,10,23,8.60
2015,02,28,10,24,8.60
2015,02,28,10,25,8.60
2015,02,28,10,26,8.60
2015,02,28,10,27,8.70
2015,02,28,10,28,8.70
2015,02,28,10,29,8.70
2015,02,28,10,30,8.70
2015,02,28,10,31,8.70
2015,02,28,10,32,8.70
2015,02,28,10,33,8.80
2015,02,28,10,34,8.80
2015,02,28,10,35,8.80
2015,02,28,10,36,8.80
2015,02,28,10,37,8.80
2015,02,28,10,38,8.80
2015,02,28,10,39,8.80
2015,02,28,10,40,8.80
2015,02,28,10,41,8.80
2015,02,28,10,42,8.80
2015,02,28,10,43,8.90
2015,02,28,10,44,8.90
2015,02,28,10,45,8.90
2015,02,28,10,46,8.90
2015,02,28,10,47,9.00
2015,02,28,10,48,9.00
2015,02,28,10,49,9.10
2015,02,28,10,50,9.10
2015,02,28,10,51,9.10
2015,02,28,10,52,9.20
2015,02,28,10,53,9.20
2015,02,28,10,54,9.20
2015,02,28,10,55,9.20
2015,02,28,10,56,9.30
2015,02,28,10,57,9.30
2015,02,28,10,58,9.30
2015,02,28,10,59,9.30
2015,02,28,11,00,9.30
2015,02,28,11,01,9.30
2015,02,28,11,02,9.30
2015,02,28,11,03,9.40
2015,02,28,11,04,9.40
2015,02,28,11,05,9.40
2015,02,28,11,06,9.40
2015,02,28,11,07,9.40
2015,02,28,11,08,9.40
2015,02,28,11,09,9.50
2015,02,28,11,10,9.50
2015,02,28,11,11,9.50
2015,02,28,11,12,9.60
2015,02,28,11,13,9.60
2015,02,28,11,14,9.60
2015,02,28,11,15,9.70
2015,02,28,11,16,9.70
2015,02,28,11,17,9.80
2015,02,28,11,18,9.80
2015,02,28,11,19,9.80
2015,02,28,11,20,9.80
2015,02,28,11,21,9.80
2015,02,28,11,22,9.90
2015,02,28,11,23,9.90
2015,02,28,11,24,9.90
2015,02,28,11,25,9.90
2015,02,28,11,26,9.90
2015,02,28,11,27,9.90
2015,02,28,11,28,9.90
2015,02,28,11,29,10.00
2015,02,28,11,30,10.00
2015,02,28,11,31,10.10
2015,02,28,11,32,10.10
2015,02,28,11,33,10.20
2015,02,28,11,34,10.20
2015,02,28,11,35,10.30
2015,02,28,11,36,10.30
2015,02,28,11,37,10.30
2015,02,28,11,38,10.30
2015,02,28,11,39,10.30
2015,02,28,11,40,10.30
2015,02,28,11,41,10.40
2015,02,28,11,42,10.40
2015,02,28,11,43,10.40
2015,02,28,11,44,10.50
2015,02,28,11,45,10.50
2015,02,28,11,46,10.50
2015,02,28,11,47,10.60
2015,02,28,11,48,10.60
2015,02,28,11,49,10.60
2015,02,28,11,50,10.60
2015,02,28,11,51,10.60
2015,02,28,11,52,10.60
2015,02,28,11,53,10.60
2015,02,28,11,54,10.60
2015,02,28,11,55,10.60
2015,02,28,11,56,10.60
2015,02,28,11,57,10.60
2015,02,28,11,58,10.60
2015,02,28,11,59,10.60
2015,02,28,12,00,10.60
2015,02,28,12,01,10.60
2015,02,28,12,02,10.60
2015,02,28,12,03,10.50
2015,02,28,12,04,10.50
2015,02,28,12,05,10.50
2015,02,28,12,06,10.50
2015,02,28,12,07,10.50
2015,02,28,12,08,10.50
2015,02,28,12,09,10.50
2015,02,28,12,10,10.50
2015,02,28,12,11,10.60
2015,02,28,12,12,10.60
2015,02,28,12,13,10.70
2015,02,28,12,14,10.70
2015,02,28,12,15,10.70
2015,02,28,12,16,10.70
2015,02,28,12,17,10.70
2015,02,28,12,18,10.80
2015,02,28,12,19,10.80
2015,02,28,12,20,10.80
2015,02,28,12,21,10.80
2015,02,28,12,22,10.70
2015,02,28,12,23,10.70
2015,02,28,12,24,10.70
2015,02,28,12,25,10.80
2015,02,28,12,26,10.80
2015,02,28,12,27,10.80
2015,02,28,12,28,10.80
2015,02,28,12,29,10.80
2015,02,28,12,30,10.80
2015,02,28,12,31,10.90
2015,02,28,12,32,10.90
2015,02,28,12,33,10.90
2015,02,28,12,34,10.90
2015,02,28,12,35,10.90
2015,02,28,12,36,10.80
2015,02,28,12,37,10.80
2015,02,28,12,38,10.70
2015,02,28,12,39,10.70
2015,02,28,12,40,10.70
2015,02,28,12,41,10.60
2015,02,28,12,42,10.60
2015,02,28,12,43,10.60
2015,02,28,12,44,10.60
2015,02,28,12,45,10.60
2015,02,28,12,46,10.60
2015,02,28,12,47,10.60
2015,02,28,12,48,10.70
2015,02,28,12,49,10.70
2015,02,28,12,50,10.70
2015,02,28,12,51,10.70
2015,02,28,12,52,10.70
2015,02,28,12,53,10.70
2015,02,28,12,54,10.60
2015,02,28,12,55,10.60
2015,02,28,12,56,10.60
2015,02,28,12,57,10.60
2015,02,28,12,58,10.60
2015,02,28,12,59,10.60
2015,02,28,13,00,10.70
2015,02,28,13,01,10.70
2015,02,28,13,02,10.80
2015,02,28,13,03,10.80
2015,02,28,13,04,10.80
2015,02,28,13,05,10.90
2015,02,28,13,06,10.80
2015,02,28,13,07,10.60
2015,02,28,13,08,10.50
2015,02,28,13,09,10.40
2015,02,28,13,10,10.30
2015,02,28,13,11,10.30
2015,02,28,13,12,10.20
2015,02,28,13,13,10.20
2015,02,28,13,14,10.20
2015,02,28,13,15,10.30
2015,02,28,13,16,10.30
2015,02,28,13,17,10.30
2015,02,28,13,18,10.30
2015,02,28,13,19,10.30
2015,02,28,13,20,10.30
2015,02,28,13,21,10.20
2015,02,28,13,22,10.20
2015,02,28,13,23,10.30
2015,02,28,13,24,10.30
2015,02,28,13,25,10.30
2015,02,28,13,26,10.40
2015,02,28,13,27,10.40
2015,02,28,13,28,10.40
2015,02,28,13,29,10.40
2015,02,28,13,30,10.40
2015,02,28,13,31,10.40
2015,02,28,13,32,10.40
2015,02,28,13,33,10.30
2015,02,28,13,34,10.30
2015,02,28,13,35,10.30
2015,02,28,13,36,10.30
2015,02,28,13,37,10.30
2015,02,28,13,38,10.40
2015,02,28,13,39,10.40
2015,02,28,13,40,10.40
2015,02,28,13,41,10.40
2015,02,28,13,42,10.40
2015,02,28,13,43,10.30
2015,02,28,13,44,10.30
2015,02,28,13,45,10.30
2015,02,28,13,46,10.30
2015,02,28,13,47,10.20
2015,02,28,13,48,10.20
2015,02,28,13,49,10.20
2015,02,28,13,50,10.10
2015,02,28,13,51,10.10
2015,02,28,13,52,10.00
2015,02,28,13,53,9.90
2015,02,28,13,54,9.90
2015,02,28,13,55,9.90
2015,02,28,13,56,9.80
2015,02,28,13,57,9.80
2015,02,28,13,58,9.80
2015,02,28,13,59,9.70
2015,02,28,14,00,9.70
2015,02,28,14,01,9.60
2015,02,28,14,02,9.60
2015,02,28,14,03,9.60
2015,02,28,14,04,9.60
2015,02,28,14,05,9.60
2015,02,28,14,06,9.60
2015,02,28,14,07,9.60
2015,02,28,14,08,9.50
2015,02,28,14,09,9.50
2015,02,28,14,10,9.50
2015,02,28,14,11,9.50
2015,02,28,14,12,9.60
2015,02,28,14,13,9.60
2015,02,28,14,14,9.70
2015,02,28,14,15,9.70
2015,02,28,14,16,9.70
2015,02,28,14,17,9.80
2015,02,28,14,18,9.80
2015,02,28,14,19,9.90
2015,02,28,14,20,9.90
2015,02,28,14,21,10.00
2015,02,28,14,22,10.10
2015,02,28,14,23,10.10
2015,02,28,14,24,10.10
2015,02,28,14,25,10.10
2015,02,28,14,26,10.10
2015,02,28,14,27,10.10
2015,02,28,14,28,10.10
2015,02,28,14,29,10.10
2015,02,28,14,30,10.10
2015,02,28,14,31,10.10
2015,02,28,14,32,10.30
2015,02,28,14,33,10.40
2015,02,28,14,34,10.50
2015,02,28,14,35,10.60
2015,02,28,14,36,10.70
2015,02,28,14,37,10.80
2015,02,28,14,38,10.90
2015,02,28,14,39,11.00
2015,02,28,14,40,11.00
2015,02,28,14,41,11.10
2015,02,28,14,42,11.20
2015,02,28,14,43,11.20
2015,02,28,14,44,11.20
2015,02,28,14,45,11.20
2015,02,28,14,46,11.20
2015,02,28,14,47,11.20
2015,02,28,14,48,11.10
2015,02,28,14,49,11.10
2015,02,28,14,50,11.10
2015,02,28,14,51,11.10
2015,02,28,14,52,11.10
2015,02,28,14,53,11.10
2015,02,28,14,54,11.20
2015,02,28,14,55,11.10
2015,02,28,14,56,11.10
2015,02,28,14,57,11.10
2015,02,28,14,58,11.10
2015,02,28,14,59,11.20
2015,02,28,15,00,11.20
2015,02,28,15,01,11.20
2015,02,28,15,02,11.30
2015,02,28,15,03,11.30
2015,02,28,15,04,11.30
2015,02,28,15,05,11.30
2015,02,28,15,06,11.30
2015,02,28,15,07,11.30
2015,02,28,15,08,11.30
2015,02,28,15,09,11.40
2015,02,28,15,10,11.40
2015,02,28,15,11,11.40
2015,02,28,15,12,11.40
2015,02,28,15,13,11.30
2015,02,28,15,14,11.30
2015,02,28,15,15,11.30
2015,02,28,15,16,11.20
2015,02,28,15,17,11.20
2015,02,28,15,18,11.10
2015,02,28,15,19,11.10
2015,02,28,15,20,11.00
2015,02,28,15,21,10.90
2015,02,28,15,22,10.90
2015,02,28,15,23,10.90
2015,02,28,15,24,10.90
2015,02,28,15,25,10.90
2015,02,28,15,26,10.90
2015,02,28,15,27,11.00
2015,02,28,15,28,11.00
2015,02,28,15,29,11.10
2015,02,28,15,30,11.20
2015,02,28,15,31,11.20
2015,02,28,15,32,11.20
2015,02,28,15,33,11.20
2015,02,28,15,34,11.30
2015,02,28,15,35,11.30
2015,02,28,15,36,11.30
2015,02,28,15,37,11.30
2015,02,28,15,38,11.30
2015,02,28,15,39,11.20
2015,02,28,15,40,11.20
2015,02,28,15,41,11.20
2015,02,28,15,42,11.10
2015,02,28,15,43,11.00
2015,02,28,15,44,10.90
2015,02,28,15,45,10.90
2015,02,28,15,46,10.80
2015,02,28,15,47,10.80
2015,02,28,15,48,10.70
2015,02,28,15,49,10.70
2015,02,28,15,50,10.70
2015,02,28,15,51,10.60
2015,02,28,15,52,10.60
2015,02,28,15,53,10.60
2015,02,28,15,54,10.50
2015,02,28,15,55,10.50
2015,02,28,15,56,10.50
2015,02,28,15,57,10.60
2015,02,28,15,58,10.60
2015,02,28,15,59,10.60
2015,02,28,16,00,10.60
2015,02,28,16,01,10.60
2015,02,28,16,02,10.70
2015,02,28,16,03,10.70
2015,02,28,16,04,10.60
2015,02,28,16,05,10.60
2015,02,28,16,06,10.50
2015,02,28,16,07,10.50
2015,02,28,16,08,10.40
2015,02,28,16,09,10.40
2015,02,28,16,10,10.40
2015,02,28,16,11,10.40
2015,02,28,16,12,10.30
2015,02,28,16,13,10.30
2015,02,28,16,14,10.40
2015,02,28,16,15,10.40
2015,02,28,16,16,10.40
2015,02,28,16,17,10.40
2015,02,28,16,18,10.40
2015,02,28,16,19,10.40
2015,02,28,16,20,10.40
2015,02,28,16,21,10.40
2015,02,28,16,22,10.30
2015,02,28,16,23,10.30
2015,02,28,16,24,10.20
2015,02,28,16,25,10.10
2015,02,28,16,26,10.00
2015,02,28,16,27,9.90
2015,02,28,16,28,9.90
2015,02,28,16,29,9.90
2015,02,28,16,30,10.00
2015,02,28,16,31,10.00
2015,02,28,16,32,10.10
2015,02,28,16,33,10.10
2015,02,28,16,34,10.10
2015,02,28,16,35,10.10
2015,02,28,16,36,10.10
2015,02,28,16,37,10.10
2015,02,28,16,38,10.10
2015,02,28,16,39,10.10
2015,02,28,16,40,10.10
2015,02,28,16,41,10.10
2015,02,28,16,42,10.10
2015,02,28,16,43,10.20
2015,02,28,16,44,10.20
2015,02,28,16,45,10.20
2015,02,28,16,46,10.20
2015,02,28,16,47,10.30
2015,02,28,16,48,10.30
2015,02,28,16,49,10.30
2015,02,28,16,50,10.30
2015,02,28,16,51,10.30
2015,02,28,16,52,10.30
2015,02,28,16,53,10.30
2015,02,28,16,54,10.30
2015,02,28,16,55,10.30
2015,02,28,16,56,10.30
2015,02,28,16,57,10.30
2015,02,28,16,58,10.30
2015,02,28,16,59,10.30
2015,02,28,17,00,10.20
2015,02,28,17,01,10.20
2015,02,28,17,02,10.20
2015,02,28,17,03,10.10
2015,02,28,17,04,10.10
2015,02,28,17,05,10.00
2015,02,28,17,06,10.00
2015,02,28,17,07,10.00
2015,02,28,17,08,9.90
2015,02,28,17,09,9.90
2015,02,28,17,10,9.80
2015,02,28,17,11,9.80
2015,02,28,17,12,9.80
2015,02,28,17,13,9.70
2015,02,28,17,14,9.70
2015,02,28,17,15,9.70
2015,02,28,17,16,9.60
2015,02,28,17,17,9.60
2015,02,28,17,18,9.60
2015,02,28,17,19,9.60
2015,02,28,17,20,9.60
2015,02,28,17,21,9.50
2015,02,28,17,22,9.50
2015,02,28,17,23,9.50
2015,02,28,17,24,9.50
2015,02,28,17,25,9.50
2015,02,28,17,26,9.50
2015,02,28,17,27,9.40
2015,02,28,17,28,9.40
2015,02,28,17,29,9.40
2015,02,28,17,30,9.40
2015,02,28,17,31,9.40
2015,02,28,17,32,9.30
2015,02,28,17,33,9.30
2015,02,28,17,34,9.30
2015,02,28,17,35,9.30
2015,02,28,17,36,9.30
2015,02,28,17,37,9.30
2015,02,28,17,38,9.20
2015,02,28,17,39,9.20
2015,02,28,17,40,9.20
2015,02,28,17,41,9.20
2015,02,28,17,42,9.10
2015,02,28,17,43,9.10
2015,02,28,17,44,9.10
2015,02,28,17,45,9.00
2015,02,28,17,46,8.90
2015,02,28,17,47,8.90
2015,02,28,17,48,8.80
2015,02,28,17,49,8.80
2015,02,28,17,50,8.80
2015,02,28,17,51,8.70
2015,02,28,17,52,8.70